Location: Powder Track
(41.8531°N, 72.3584°W)
Time: 13:05:27
(UTC+00:00)

Transit 4A - All Passes

Search period start: 04 August 2021 00:00
Search period end: 14 August 2021 00:00
Orbit: 872 x 972 km, 66.8° (Epoch: 03 August)

Date Brightness Start Highest point End Pass type
(mag) Time Alt. Az. Time Alt. Az. Time Alt. Az.
04 Aug - 02:25:30 10° SE 02:28:57 16° ESE 02:32:23 10° ENE visible
04 Aug - 04:08:41 10° SW 04:14:35 77° WNW 04:20:27 10° NNE visible
04 Aug - 05:58:19 10° WNW 06:01:54 16° NW 06:05:30 10° N visible
04 Aug - 11:25:23 10° N 11:30:02 24° NE 11:34:43 10° E daylight
04 Aug - 13:11:01 10° NW 13:16:52 68° WSW 13:22:50 10° SSE daylight
05 Aug - 02:33:18 10° SSE 02:37:59 25° ESE 02:42:37 10° NE visible
05 Aug - 04:18:12 10° SW 04:23:57 53° NW 04:29:40 10° NNE visible
05 Aug - 06:09:24 10° NW 06:11:42 12° NNW 06:13:59 10° N visible
05 Aug - 11:34:22 10° NNW 11:39:36 32° NE 11:44:54 10° ESE daylight
05 Aug - 13:20:30 10° NW 13:26:05 46° WSW 13:31:46 10° S daylight
06 Aug - 02:41:42 10° S 02:47:05 37° ESE 02:52:24 10° NE visible
06 Aug - 04:27:59 10° WSW 04:33:23 37° NW 04:38:47 10° NNE visible
06 Aug - 09:59:41 10° NNE 10:01:09 11° NNE 10:02:38 10° NE daylight
06 Aug - 11:43:27 10° NNW 11:49:05 45° NE 11:54:48 10° SE daylight
06 Aug - 13:30:09 10° NW 13:35:13 30° WSW 13:40:22 10° SSW daylight
07 Aug - 02:50:30 10° SSW 02:56:14 57° ESE 03:01:57 10° NE visible
07 Aug - 04:38:02 10° WSW 04:42:55 27° NW 04:47:49 10° N visible
07 Aug - 10:07:50 10° N 10:10:59 15° NE 10:14:09 10° ENE daylight
07 Aug - 11:52:37 10° NNW 11:58:29 65° ENE 12:04:26 10° SE daylight
07 Aug - 13:40:06 10° WNW 13:44:16 20° WSW 13:48:31 10° SSW daylight
08 Aug - 01:18:06 10° ESE 01:20:04 12° ESE 01:22:01 10° E visible
08 Aug - 02:59:34 10° SSW 03:05:29 84° ESE 03:11:20 10° NNE visible
08 Aug - 04:48:22 10° W 04:52:33 20° NW 04:56:43 10° N visible
08 Aug - 10:16:32 10° N 10:20:42 19° NE 10:24:54 10° E daylight
08 Aug - 12:01:53 10° NNW 12:07:48 87° WSW 12:13:50 10° SSE daylight
08 Aug - 13:50:48 10° WNW 13:53:17 13° WSW 13:55:46 10° SW daylight
09 Aug - 01:25:05 10° SSE 01:29:03 19° ESE 01:33:00 10° ENE visible
09 Aug - 03:08:56 10° SW 03:14:48 67° WNW 03:20:37 10° NNE visible
09 Aug - 04:59:04 10° WNW 05:02:16 15° NW 05:05:27 10° N visible
09 Aug - 10:25:26 10° N 10:30:20 26° NE 10:35:16 10° ESE daylight
09 Aug - 12:11:15 10° NW 12:17:03 59° WSW 12:22:57 10° SSE daylight
10 Aug - 01:33:08 10° SSE 01:38:06 29° ESE 01:43:01 10° NE visible
10 Aug - 03:18:33 10° SW 03:24:10 46° NW 03:29:48 10° NNE visible
10 Aug - 05:10:30 10° NW 05:12:05 11° NNW 05:13:39 10° NNW visible
10 Aug - 10:34:28 10° NNW 10:39:52 36° NE 10:45:21 10° ESE daylight
10 Aug - 12:20:47 10° NW 12:26:14 40° WSW 12:31:46 10° S daylight
11 Aug - 01:41:41 10° S 01:47:13 43° ESE 01:52:42 10° NE visible
11 Aug - 03:28:25 10° WSW 03:33:39 33° NW 03:38:53 10° NNE visible
11 Aug - 08:59:18 10° N 09:01:32 12° NNE 09:03:48 10° NE visible
11 Aug - 10:43:35 10° NNW 10:49:20 51° NE 10:55:10 10° SE daylight
11 Aug - 12:30:31 10° NW 12:35:20 26° WSW 12:40:15 10° SSW daylight
12 Aug - 01:50:35 10° SSW 01:56:24 65° ESE 02:02:11 10° NE visible
12 Aug - 03:38:33 10° W 03:43:13 24° NW 03:47:53 10° N visible
12 Aug - 09:07:46 10° N 09:11:20 16° NE 09:14:56 10° ENE visible
12 Aug - 10:52:46 10° NNW 10:58:42 74° ENE 11:04:42 10° SE daylight
12 Aug - 12:40:39 10° WNW 12:44:23 17° WSW 12:48:09 10° SW daylight
13 Aug - 00:17:15 10° SE 00:20:08 14° ESE 00:23:01 10° ENE visible
13 Aug - 01:59:46 10° SSW 02:05:40 85° WNW 02:11:32 10° NNE visible
13 Aug - 03:49:01 10° W 03:52:53 18° NW 03:56:44 10° N visible
13 Aug - 09:16:34 10° N 09:21:02 22° NE 09:25:31 10° E visible
13 Aug - 11:02:05 10° NNW 11:07:59 77° WSW 11:14:01 10° SSE daylight
13 Aug - 12:52:11 10° W 12:53:21 11° W 12:54:31 10° WSW daylight
